Time,TemperatureF,DewpointF,PressureIn,WindDirection,WindDirectionDegrees,WindSpeedMPH,WindSpeedGustMPH,Humidity,HourlyPrecipIn,Conditions,Clouds,dailyrainin,SolarRadiationWatts/m^2,SoftwareType,DateUTC
2013-09-10 00:00:00,69.4,50.5,29.83,SSW,211,1.0,5.0,51,0.00,,,0.00,0.0,meteohub,2013-09-10 07:00:00,
2013-09-10 00:05:00,69.6,50.2,29.83,SW,222,1.0,5.0,50,0.00,,,0.00,0.0,meteohub,2013-09-10 07:05:00,
2013-09-10 00:10:00,70.0,50.5,29.83,SW,226,0.0,5.0,50,0.00,,,0.00,0.0,meteohub,2013-09-10 07:10:00,
2013-09-10 00:15:00,70.0,50.5,29.83,WSW,248,1.0,4.0,50,0.00,,,0.00,0.0,meteohub,2013-09-10 07:15:00,
2013-09-10 00:20:00,70.2,50.2,29.83,WSW,258,0.0,6.0,49,0.00,,,0.00,0.0,meteohub,2013-09-10 07:20:00,
2013-09-10 00:25:00,70.2,49.6,29.83,WSW,244,2.0,6.0,48,0.00,,,0.00,0.0,meteohub,2013-09-10 07:25:00,
2013-09-10 00:30:00,70.3,49.6,29.83,West,260,3.0,6.0,48,0.00,,,0.00,0.0,meteohub,2013-09-10 07:30:00,
2013-09-10 00:35:00,70.5,49.8,29.83,West,277,0.0,5.0,48,0.00,,,0.00,0.0,meteohub,2013-09-10 07:35:00,
2013-09-10 00:40:00,70.3,49.6,29.83,West,276,3.0,5.0,48,0.00,,,0.00,0.0,meteohub,2013-09-10 07:40:00,
2013-09-10 00:45:00,70.5,49.8,29.83,WSW,242,3.0,7.0,48,0.00,,,0.00,0.0,meteohub,2013-09-10 07:45:00,
2013-09-10 00:51:00,70.5,49.8,29.83,SW,221,2.0,7.0,48,0.00,,,0.00,0.0,meteohub,2013-09-10 07:51:00,
2013-09-10 00:56:00,70.5,50.4,29.83,SW,229,1.0,6.0,49,0.00,,,0.00,0.0,meteohub,2013-09-10 07:56:00,
2013-09-10 01:01:00,70.5,50.4,29.83,WSW,251,1.0,7.0,49,0.00,,,0.00,0.0,meteohub,2013-09-10 08:01:00,
2013-09-10 01:06:00,70.5,50.9,29.83,WSW,254,1.0,7.0,50,0.00,,,0.00,0.0,meteohub,2013-09-10 08:06:00,
2013-09-10 01:11:00,70.3,51.8,29.83,SW,235,1.0,7.0,52,0.00,,,0.00,0.0,meteohub,2013-09-10 08:11:00,
2013-09-10 01:16:00,70.2,51.8,29.83,WSW,246,3.0,6.0,52,0.00,,,0.00,0.0,meteohub,2013-09-10 08:16:00,
2013-09-10 01:21:00,70.0,52.0,29.83,West,269,4.0,7.0,53,0.00,,,0.00,0.0,meteohub,2013-09-10 08:21:00,
2013-09-10 01:26:00,69.6,51.8,29.83,SW,227,5.0,7.0,53,0.00,,,0.00,0.0,meteohub,2013-09-10 08:26:00,
2013-09-10 01:31:00,69.6,52.2,29.83,WSW,247,3.0,9.0,54,0.00,,,0.00,0.0,meteohub,2013-09-10 08:31:00,
2013-09-10 01:36:00,69.4,52.5,29.83,SW,221,2.0,9.0,55,0.00,,,0.00,0.0,meteohub,2013-09-10 08:36:00,
2013-09-10 01:41:00,69.3,52.9,29.83,WSW,241,2.0,9.0,56,0.00,,,0.00,0.0,meteohub,2013-09-10 08:41:00,
2013-09-10 01:46:00,69.1,52.7,29.83,SW,229,1.0,8.0,56,0.00,,,0.00,0.0,meteohub,2013-09-10 08:46:00,
2013-09-10 01:51:00,68.9,52.5,29.83,WNW,286,2.0,8.0,56,0.00,,,0.00,0.0,meteohub,2013-09-10 08:51:00,
2013-09-10 01:56:00,68.7,52.3,29.83,West,272,4.0,10.0,56,0.00,,,0.00,0.0,meteohub,2013-09-10 08:56:00,
2013-09-10 02:01:00,68.7,52.3,29.83,SW,214,1.0,10.0,56,0.00,,,0.00,0.0,meteohub,2013-09-10 09:01:00,
2013-09-10 02:06:00,68.7,52.3,29.83,WSW,246,3.0,7.0,56,0.00,,,0.00,0.0,meteohub,2013-09-10 09:06:00,
2013-09-10 02:11:00,68.5,52.2,29.83,West,263,6.0,7.0,56,0.00,,,0.00,0.0,meteohub,2013-09-10 09:11:00,
2013-09-10 02:16:00,68.5,52.2,29.83,WNW,290,4.0,9.0,56,0.00,,,0.00,0.0,meteohub,2013-09-10 09:16:00,
2013-09-10 02:21:00,68.5,51.8,29.83,WSW,257,2.0,9.0,55,0.00,,,0.00,0.0,meteohub,2013-09-10 09:21:00,
2013-09-10 02:26:00,68.7,51.4,29.83,WSW,254,4.0,9.0,54,0.00,,,0.00,0.0,meteohub,2013-09-10 09:26:00,
2013-09-10 02:31:00,68.9,51.1,29.83,WSW,238,3.0,10.0,53,0.00,,,0.00,0.0,meteohub,2013-09-10 09:31:00,
2013-09-10 02:36:00,68.9,51.1,29.83,WSW,253,2.0,10.0,53,0.00,,,0.00,0.0,meteohub,2013-09-10 09:36:00,
2013-09-10 02:41:00,69.3,50.9,29.83,WSW,254,2.0,8.0,52,0.00,,,0.00,0.0,meteohub,2013-09-10 09:41:00,
2013-09-10 02:46:00,69.4,50.5,29.83,West,265,5.0,7.0,51,0.00,,,0.00,0.0,meteohub,2013-09-10 09:46:00,
2013-09-10 02:51:00,69.6,50.7,29.83,WNW,285,0.0,8.0,51,0.00,,,0.00,0.0,meteohub,2013-09-10 09:51:00,
2013-09-10 02:56:00,69.6,50.7,29.83,West,280,3.0,8.0,51,0.00,,,0.00,0.0,meteohub,2013-09-10 09:56:00,
2013-09-10 03:01:00,69.6,50.7,29.83,West,278,1.0,8.0,51,0.00,,,0.00,0.0,meteohub,2013-09-10 10:01:00,
2013-09-10 03:07:00,69.6,51.3,29.83,WSW,238,2.0,5.0,52,0.00,,,0.00,0.0,meteohub,2013-09-10 10:07:00,
2013-09-10 03:12:00,69.6,51.3,29.83,West,264,3.0,9.0,52,0.00,,,0.00,0.0,meteohub,2013-09-10 10:12:00,
2013-09-10 03:17:00,69.4,51.6,29.83,West,277,3.0,9.0,53,0.00,,,0.00,0.0,meteohub,2013-09-10 10:17:00,
2013-09-10 03:22:00,69.3,52.0,29.83,WNW,293,2.0,8.0,54,0.00,,,0.00,0.0,meteohub,2013-09-10 10:22:00,
2013-09-10 03:27:00,69.1,52.7,29.83,WSW,254,5.0,8.0,56,0.00,,,0.00,0.0,meteohub,2013-09-10 10:27:00,
2013-09-10 03:32:00,68.7,52.9,29.83,WSW,254,2.0,8.0,57,0.00,,,0.00,0.0,meteohub,2013-09-10 10:32:00,
2013-09-10 03:37:00,68.4,53.1,29.83,WSW,256,2.0,6.0,58,0.00,,,0.00,0.0,meteohub,2013-09-10 10:37:00,
2013-09-10 03:42:00,68.2,53.8,29.83,WSW,244,2.0,6.0,60,0.00,,,0.00,0.0,meteohub,2013-09-10 10:42:00,
2013-09-10 03:47:00,67.6,53.8,29.83,WSW,249,2.0,4.0,61,0.00,,,0.00,0.0,meteohub,2013-09-10 10:47:00,
2013-09-10 03:52:00,67.3,54.3,29.83,WSW,238,1.0,6.0,63,0.00,,,0.00,0.0,meteohub,2013-09-10 10:52:00,
2013-09-10 03:57:00,66.7,54.7,29.83,SW,228,2.0,6.0,65,0.00,,,0.00,0.0,meteohub,2013-09-10 10:57:00,
2013-09-10 04:02:00,66.2,54.9,29.83,WSW,244,1.0,6.0,67,0.00,,,0.00,0.0,meteohub,2013-09-10 11:02:00,
2013-09-10 04:07:00,65.8,55.0,29.83,WSW,254,4.0,6.0,68,0.00,,,0.00,0.0,meteohub,2013-09-10 11:07:00,
2013-09-10 04:12:00,65.3,55.2,29.83,SW,232,1.0,6.0,70,0.00,,,0.00,0.0,meteohub,2013-09-10 11:12:00,
2013-09-10 04:17:00,64.8,55.2,29.84,WSW,247,2.0,6.0,71,0.00,,,0.00,0.0,meteohub,2013-09-10 11:17:00,
2013-09-10 04:22:00,64.6,55.4,29.84,WSW,248,3.0,6.0,72,0.00,,,0.00,0.0,meteohub,2013-09-10 11:22:00,
2013-09-10 04:27:00,64.2,55.4,29.84,West,263,3.0,6.0,73,0.00,,,0.00,0.0,meteohub,2013-09-10 11:27:00,
2013-09-10 04:32:00,64.0,55.2,29.84,WSW,240,4.0,7.0,73,0.00,,,0.00,0.0,meteohub,2013-09-10 11:32:00,
2013-09-10 04:37:00,63.9,55.4,29.84,WSW,254,3.0,7.0,74,0.00,,,0.00,0.0,meteohub,2013-09-10 11:37:00,
2013-09-10 04:42:00,63.7,55.2,29.84,WSW,251,3.0,7.0,74,0.00,,,0.00,0.0,meteohub,2013-09-10 11:42:00,
2013-09-10 04:47:00,63.3,55.2,29.84,SW,230,4.0,7.0,75,0.00,,,0.00,0.0,meteohub,2013-09-10 11:47:00,
2013-09-10 04:52:00,63.0,54.9,29.84,SW,234,7.0,8.0,75,0.00,,,0.00,0.0,meteohub,2013-09-10 11:52:00,
2013-09-10 04:57:00,62.8,54.7,29.85,WSW,240,3.0,8.0,75,0.00,,,0.00,0.0,meteohub,2013-09-10 11:57:00,
2013-09-10 05:02:00,62.2,54.5,29.85,WSW,239,6.0,7.0,76,0.00,,,0.00,0.0,meteohub,2013-09-10 12:02:00,
2013-09-10 05:07:00,62.1,54.7,29.85,WSW,247,3.0,7.0,77,0.00,,,0.00,0.0,meteohub,2013-09-10 12:07:00,
2013-09-10 05:12:00,61.7,54.9,29.85,SW,225,3.0,7.0,78,0.00,,,0.00,0.0,meteohub,2013-09-10 12:12:00,
2013-09-10 05:17:00,61.5,54.7,29.85,SW,226,6.0,7.0,78,0.00,,,0.00,0.0,meteohub,2013-09-10 12:17:00,
2013-09-10 05:22:00,61.3,54.5,29.85,WSW,246,5.0,8.0,78,0.00,,,0.00,0.0,meteohub,2013-09-10 12:22:00,
2013-09-10 05:27:00,61.2,54.3,29.85,WSW,257,2.0,8.0,78,0.00,,,0.00,0.0,meteohub,2013-09-10 12:27:00,
2013-09-10 05:32:00,61.0,54.5,29.85,SW,227,7.0,11.0,79,0.00,,,0.00,0.0,meteohub,2013-09-10 12:32:00,
2013-09-10 05:37:00,60.6,54.1,29.85,WSW,252,3.0,11.0,79,0.00,,,0.00,0.0,meteohub,2013-09-10 12:37:00,
2013-09-10 05:42:00,60.4,54.3,29.85,SSW,193,5.0,8.0,80,0.00,,,0.00,0.0,meteohub,2013-09-10 12:42:00,
2013-09-10 05:47:00,60.3,54.1,29.85,WSW,242,3.0,8.0,80,0.00,,,0.00,0.0,meteohub,2013-09-10 12:47:00,
2013-09-10 05:52:00,60.1,54.3,29.85,WSW,242,5.0,8.0,81,0.00,,,0.00,0.0,meteohub,2013-09-10 12:52:00,
2013-09-10 05:57:00,59.7,54.0,29.85,West,259,3.0,8.0,81,0.00,,,0.00,0.0,meteohub,2013-09-10 12:57:00,
2013-09-10 06:02:00,59.5,54.0,29.85,WSW,238,3.0,8.0,82,0.00,,,0.00,0.0,meteohub,2013-09-10 13:02:00,
2013-09-10 06:07:00,59.5,54.0,29.85,WSW,248,3.0,8.0,82,0.00,,,0.00,0.0,meteohub,2013-09-10 13:07:00,
2013-09-10 06:12:00,59.4,53.8,29.86,SW,232,3.0,7.0,82,0.00,,,0.00,0.0,meteohub,2013-09-10 13:12:00,
2013-09-10 06:17:00,59.4,53.8,29.86,WSW,240,2.0,7.0,82,0.00,,,0.00,0.0,meteohub,2013-09-10 13:17:00,
2013-09-10 06:22:00,59.4,53.8,29.86,SW,227,3.0,7.0,82,0.00,,,0.00,0.0,meteohub,2013-09-10 13:22:00,
2013-09-10 06:27:00,59.2,53.6,29.86,SW,225,1.0,7.0,82,0.00,,,0.00,0.0,meteohub,2013-09-10 13:27:00,
2013-09-10 06:32:00,59.2,54.0,29.87,SW,219,2.0,5.0,83,0.00,,,0.00,0.0,meteohub,2013-09-10 13:32:00,
2013-09-10 06:37:00,59.2,54.0,29.87,West,259,2.0,7.0,83,0.00,,,0.00,0.0,meteohub,2013-09-10 13:37:00,
2013-09-10 06:42:00,59.2,54.0,29.87,WSW,237,4.0,7.0,83,0.00,,,0.00,0.0,meteohub,2013-09-10 13:42:00,
2013-09-10 06:47:00,59.4,54.1,29.87,WSW,242,3.0,9.0,83,0.00,,,0.00,0.0,meteohub,2013-09-10 13:47:00,
2013-09-10 06:52:00,59.4,54.1,29.87,West,269,2.0,9.0,83,0.00,,,0.00,0.0,meteohub,2013-09-10 13:52:00,
2013-09-10 06:57:00,59.4,54.1,29.87,West,268,2.0,7.0,83,0.00,,,0.00,5.0,meteohub,2013-09-10 13:57:00,
2013-09-10 07:02:00,59.4,54.1,29.87,WSW,242,1.0,8.0,83,0.00,,,0.00,7.0,meteohub,2013-09-10 14:02:00,
2013-09-10 07:07:00,59.4,54.1,29.87,WSW,252,4.0,8.0,83,0.00,,,0.00,7.0,meteohub,2013-09-10 14:07:00,
2013-09-10 07:12:00,59.2,54.3,29.88,WSW,253,3.0,9.0,84,0.00,,,0.00,9.0,meteohub,2013-09-10 14:12:00,
2013-09-10 07:17:00,58.8,54.0,29.88,West,269,6.0,9.0,84,0.00,,,0.00,11.0,meteohub,2013-09-10 14:17:00,
2013-09-10 07:22:00,58.6,54.1,29.88,WSW,245,4.0,9.0,85,0.00,,,0.00,12.0,meteohub,2013-09-10 14:22:00,
2013-09-10 07:27:00,58.6,54.1,29.89,NW,308,5.0,9.0,85,0.00,,,0.00,14.0,meteohub,2013-09-10 14:27:00,
2013-09-10 07:32:00,58.5,54.3,29.89,WNW,295,1.0,9.0,86,0.00,,,0.00,16.0,meteohub,2013-09-10 14:32:00,
2013-09-10 07:37:00,58.5,54.7,29.89,WSW,242,5.0,8.0,87,0.00,,,0.00,18.0,meteohub,2013-09-10 14:37:00,
2013-09-10 07:42:00,58.3,54.5,29.89,SSW,211,3.0,8.0,87,0.00,,,0.00,25.0,meteohub,2013-09-10 14:42:00,
2013-09-10 07:47:00,58.5,54.9,29.89,WSW,254,5.0,8.0,88,0.00,,,0.00,40.0,meteohub,2013-09-10 14:47:00,
2013-09-10 07:52:00,58.5,54.9,29.89,West,276,3.0,9.0,88,0.00,,,0.00,33.0,meteohub,2013-09-10 14:52:00,
2013-09-10 07:57:00,58.6,55.0,29.89,West,274,2.0,9.0,88,0.00,,,0.00,26.0,meteohub,2013-09-10 14:57:00,
2013-09-10 08:02:00,58.6,55.0,29.90,WSW,240,7.0,9.0,88,0.00,,,0.00,42.0,meteohub,2013-09-10 15:02:00,
2013-09-10 08:07:00,58.8,55.2,29.90,WSW,253,7.0,8.0,88,0.00,,,0.00,40.0,meteohub,2013-09-10 15:07:00,
2013-09-10 08:12:00,58.8,55.0,29.90,West,266,2.0,10.0,87,0.00,,,0.00,35.0,meteohub,2013-09-10 15:12:00,
2013-09-10 08:17:00,59.2,55.4,29.90,WSW,254,7.0,10.0,87,0.00,,,0.00,42.0,meteohub,2013-09-10 15:17:00,
2013-09-10 08:22:00,59.2,55.4,29.90,SW,217,4.0,10.0,87,0.00,,,0.00,37.0,meteohub,2013-09-10 15:22:00,
2013-09-10 08:27:00,59.4,55.8,29.90,WSW,254,3.0,11.0,88,0.00,,,0.00,47.0,meteohub,2013-09-10 15:27:00,
2013-09-10 08:32:00,59.5,55.6,29.90,SW,236,5.0,12.0,87,0.00,,,0.00,47.0,meteohub,2013-09-10 15:32:00,
2013-09-10 08:37:00,59.7,55.8,29.91,WSW,248,3.0,12.0,87,0.00,,,0.00,44.0,meteohub,2013-09-10 15:37:00,
2013-09-10 08:42:00,60.1,56.1,29.91,WSW,254,5.0,12.0,87,0.00,,,0.00,47.0,meteohub,2013-09-10 15:42:00,
2013-09-10 08:47:00,60.3,56.1,29.91,WSW,243,3.0,9.0,86,0.00,,,0.00,44.0,meteohub,2013-09-10 15:47:00,
2013-09-10 08:52:00,60.4,56.3,29.91,WSW,246,6.0,9.0,86,0.00,,,0.00,37.0,meteohub,2013-09-10 15:52:00,
2013-09-10 08:57:00,60.4,56.3,29.91,NW,304,7.0,10.0,86,0.00,,,0.00,39.0,meteohub,2013-09-10 15:57:00,
2013-09-10 09:02:00,60.6,56.1,29.91,West,264,7.0,10.0,85,0.00,,,0.00,37.0,meteohub,2013-09-10 16:02:00,
2013-09-10 09:07:00,60.8,56.3,29.91,WSW,254,6.0,12.0,85,0.00,,,0.00,37.0,meteohub,2013-09-10 16:07:00,
2013-09-10 09:12:00,61.0,56.5,29.91,West,272,6.0,12.0,85,0.00,,,0.00,39.0,meteohub,2013-09-10 16:12:00,
2013-09-10 09:17:00,61.2,56.3,29.91,WSW,248,5.0,12.0,84,0.00,,,0.00,39.0,meteohub,2013-09-10 16:17:00,
2013-09-10 09:22:00,61.3,56.5,29.91,WNW,292,3.0,11.0,84,0.00,,,0.00,40.0,meteohub,2013-09-10 16:22:00,
2013-09-10 09:27:00,61.7,56.5,29.91,WNW,301,5.0,11.0,83,0.00,,,0.00,42.0,meteohub,2013-09-10 16:27:00,
2013-09-10 09:32:00,62.1,56.5,29.91,SW,228,5.0,10.0,82,0.00,,,0.00,42.0,meteohub,2013-09-10 16:32:00,
2013-09-10 09:37:00,62.6,57.0,29.91,WSW,244,3.0,10.0,82,0.00,,,0.00,44.0,meteohub,2013-09-10 16:37:00,
2013-09-10 09:42:00,63.0,57.0,29.91,WSW,245,5.0,10.0,81,0.00,,,0.00,46.0,meteohub,2013-09-10 16:42:00,
2013-09-10 09:47:00,63.5,57.2,29.91,West,268,3.0,9.0,80,0.00,,,0.00,46.0,meteohub,2013-09-10 16:47:00,
2013-09-10 09:52:00,63.9,57.2,29.91,WSW,238,3.0,9.0,79,0.00,,,0.00,47.0,meteohub,2013-09-10 16:52:00,
2013-09-10 09:57:00,64.2,57.2,29.91,West,266,4.0,9.0,78,0.00,,,0.00,49.0,meteohub,2013-09-10 16:57:00,
2013-09-10 10:02:00,64.8,57.4,29.91,West,261,4.0,8.0,77,0.00,,,0.00,51.0,meteohub,2013-09-10 17:02:00,
2013-09-10 10:07:00,65.1,57.0,29.91,WSW,250,6.0,10.0,75,0.00,,,0.00,51.0,meteohub,2013-09-10 17:07:00,
2013-09-10 10:12:00,65.5,57.4,29.91,SW,228,4.0,13.0,75,0.00,,,0.00,53.0,meteohub,2013-09-10 17:12:00,
2013-09-10 10:17:00,65.7,57.2,29.91,West,269,4.0,13.0,74,0.00,,,0.00,54.0,meteohub,2013-09-10 17:17:00,
2013-09-10 10:22:00,66.0,57.6,29.91,SW,235,10.0,13.0,74,0.00,,,0.00,56.0,meteohub,2013-09-10 17:22:00,
2013-09-10 10:27:00,66.4,57.4,29.91,West,259,4.0,13.0,73,0.00,,,0.00,58.0,meteohub,2013-09-10 17:27:00,
2013-09-10 10:32:00,66.9,57.6,29.91,WSW,248,4.0,12.0,72,0.00,,,0.00,62.0,meteohub,2013-09-10 17:32:00,
2013-09-10 10:37:00,67.3,57.6,29.91,SW,219,10.0,12.0,71,0.00,,,0.00,63.0,meteohub,2013-09-10 17:37:00,
2013-09-10 10:42:00,67.6,57.9,29.91,WSW,255,9.0,12.0,71,0.00,,,0.00,65.0,meteohub,2013-09-10 17:42:00,
2013-09-10 10:47:00,68.0,57.9,29.91,SW,232,5.0,13.0,70,0.00,,,0.00,67.0,meteohub,2013-09-10 17:47:00,
2013-09-10 10:52:00,68.5,57.6,29.91,WSW,243,8.0,13.0,68,0.00,,,0.00,69.0,meteohub,2013-09-10 17:52:00,
2013-09-10 10:57:00,69.1,58.1,29.91,WSW,247,5.0,11.0,68,0.00,,,0.00,72.0,meteohub,2013-09-10 17:57:00,
2013-09-10 11:02:00,69.1,58.1,29.91,WSW,246,7.0,12.0,68,0.00,,,0.00,74.0,meteohub,2013-09-10 18:02:00,
2013-09-10 11:07:00,69.8,58.3,29.91,SW,226,7.0,12.0,67,0.00,,,0.00,76.0,meteohub,2013-09-10 18:07:00,
2013-09-10 11:12:00,70.5,58.1,29.91,West,275,4.0,12.0,65,0.00,,,0.00,77.0,meteohub,2013-09-10 18:12:00,
2013-09-10 11:17:00,71.2,58.5,29.92,WSW,254,7.0,9.0,64,0.00,,,0.00,95.0,meteohub,2013-09-10 18:17:00,
2013-09-10 11:22:00,71.4,58.1,29.92,West,259,1.0,10.0,63,0.00,,,0.00,301.0,meteohub,2013-09-10 18:22:00,
2013-09-10 11:27:00,72.1,58.5,29.92,WSW,258,5.0,10.0,62,0.00,,,0.00,594.0,meteohub,2013-09-10 18:27:00,
2013-09-10 11:32:00,72.5,58.3,29.92,SW,231,6.0,10.0,61,0.00,,,0.00,661.0,meteohub,2013-09-10 18:32:00,
2013-09-10 11:37:00,72.9,58.1,29.92,WSW,257,2.0,9.0,60,0.00,,,0.00,670.0,meteohub,2013-09-10 18:37:00,
2013-09-10 11:42:00,72.9,58.1,29.92,West,265,7.0,12.0,60,0.00,,,0.00,679.0,meteohub,2013-09-10 18:42:00,
2013-09-10 11:47:00,72.7,58.5,29.92,West,281,4.0,13.0,61,0.00,,,0.00,687.0,meteohub,2013-09-10 18:47:00,
2013-09-10 11:52:00,73.0,58.3,29.92,SW,229,5.0,13.0,60,0.00,,,0.00,693.0,meteohub,2013-09-10 18:52:00,
2013-09-10 11:57:00,73.6,58.3,29.92,WSW,245,5.0,13.0,59,0.00,,,0.00,698.0,meteohub,2013-09-10 18:57:00,
2013-09-10 12:02:00,73.9,58.3,29.92,SW,235,4.0,11.0,58,0.00,,,0.00,701.0,meteohub,2013-09-10 19:02:00,
2013-09-10 12:07:00,74.5,58.3,29.92,WSW,244,6.0,12.0,57,0.00,,,0.00,708.0,meteohub,2013-09-10 19:07:00,
2013-09-10 12:12:00,74.5,58.3,29.92,WSW,244,4.0,12.0,57,0.00,,,0.00,714.0,meteohub,2013-09-10 19:12:00,
2013-09-10 12:17:00,74.8,58.1,29.92,SW,229,8.0,12.0,56,0.00,,,0.00,722.0,meteohub,2013-09-10 19:17:00,
2013-09-10 12:22:00,74.8,58.1,29.92,SSW,204,4.0,12.0,56,0.00,,,0.00,728.0,meteohub,2013-09-10 19:22:00,
2013-09-10 12:27:00,75.6,58.3,29.92,SW,216,5.0,12.0,55,0.00,,,0.00,733.0,meteohub,2013-09-10 19:27:00,
2013-09-10 12:32:00,75.7,58.5,29.92,WSW,244,10.0,12.0,55,0.00,,,0.00,735.0,meteohub,2013-09-10 19:32:00,
2013-09-10 12:37:00,75.9,58.6,29.92,WSW,238,9.0,13.0,55,0.00,,,0.00,735.0,meteohub,2013-09-10 19:37:00,
2013-09-10 12:42:00,75.4,58.1,29.92,West,274,5.0,13.0,55,0.00,,,0.00,740.0,meteohub,2013-09-10 19:42:00,
2013-09-10 12:47:00,75.7,58.5,29.92,WSW,252,10.0,13.0,55,0.00,,,0.00,742.0,meteohub,2013-09-10 19:47:00,
2013-09-10 12:52:00,76.3,58.5,29.92,West,261,9.0,13.0,54,0.00,,,0.00,745.0,meteohub,2013-09-10 19:52:00,
2013-09-10 12:57:00,75.9,58.6,29.92,West,280,6.0,12.0,55,0.00,,,0.00,749.0,meteohub,2013-09-10 19:57:00,
2013-09-10 13:02:00,76.5,58.6,29.91,WSW,237,8.0,12.0,54,0.00,,,0.00,749.0,meteohub,2013-09-10 20:02:00,
2013-09-10 13:07:00,77.2,58.6,29.91,SW,234,6.0,12.0,53,0.00,,,0.00,751.0,meteohub,2013-09-10 20:07:00,
2013-09-10 13:12:00,77.4,58.8,29.91,SSW,213,10.0,12.0,53,0.00,,,0.00,754.0,meteohub,2013-09-10 20:12:00,
2013-09-10 13:17:00,77.4,58.8,29.91,SW,214,8.0,12.0,53,0.00,,,0.00,756.0,meteohub,2013-09-10 20:17:00,
2013-09-10 13:22:00,77.5,59.0,29.91,WSW,255,4.0,12.0,53,0.00,,,0.00,758.0,meteohub,2013-09-10 20:22:00,
2013-09-10 13:27:00,77.5,59.0,29.91,WSW,257,7.0,13.0,53,0.00,,,0.00,756.0,meteohub,2013-09-10 20:27:00,
2013-09-10 13:32:00,77.7,59.2,29.91,WSW,257,6.0,13.0,53,0.00,,,0.00,756.0,meteohub,2013-09-10 20:32:00,
2013-09-10 13:37:00,78.4,59.4,29.91,SW,234,9.0,13.0,52,0.00,,,0.00,752.0,meteohub,2013-09-10 20:37:00,
2013-09-10 13:42:00,78.6,59.0,29.91,SW,234,6.0,13.0,51,0.00,,,0.00,751.0,meteohub,2013-09-10 20:42:00,
2013-09-10 13:47:00,77.9,59.4,29.91,WSW,247,4.0,13.0,53,0.00,,,0.00,751.0,meteohub,2013-09-10 20:47:00,
2013-09-10 13:52:00,78.4,59.4,29.91,SW,217,8.0,13.0,52,0.00,,,0.00,744.0,meteohub,2013-09-10 20:52:00,
2013-09-10 13:57:00,77.7,59.2,29.91,SW,230,5.0,14.0,53,0.00,,,0.00,742.0,meteohub,2013-09-10 20:57:00,
2013-09-10 14:02:00,77.9,59.4,29.91,WSW,242,8.0,14.0,53,0.00,,,0.00,740.0,meteohub,2013-09-10 21:02:00,
2013-09-10 14:07:00,77.2,59.2,29.91,WSW,240,8.0,14.0,54,0.00,,,0.00,737.0,meteohub,2013-09-10 21:07:00,
2013-09-10 14:12:00,77.0,59.5,29.91,WSW,240,7.0,16.0,55,0.00,,,0.00,733.0,meteohub,2013-09-10 21:12:00,
2013-09-10 14:17:00,77.5,59.5,29.91,SW,231,11.0,16.0,54,0.00,,,0.00,729.0,meteohub,2013-09-10 21:17:00,
2013-09-10 14:22:00,76.6,59.2,29.91,WNW,282,7.0,16.0,55,0.00,,,0.00,726.0,meteohub,2013-09-10 21:22:00,
2013-09-10 14:27:00,76.6,59.2,29.91,WSW,241,5.0,15.0,55,0.00,,,0.00,721.0,meteohub,2013-09-10 21:27:00,
2013-09-10 14:32:00,76.5,59.2,29.91,WSW,237,11.0,15.0,55,0.00,,,0.00,714.0,meteohub,2013-09-10 21:32:00,
2013-09-10 14:37:00,75.9,59.2,29.91,WSW,239,12.0,16.0,56,0.00,,,0.00,707.0,meteohub,2013-09-10 21:37:00,
2013-09-10 14:42:00,75.4,59.0,29.91,WSW,253,7.0,16.0,57,0.00,,,0.00,701.0,meteohub,2013-09-10 21:42:00,
2013-09-10 14:47:00,75.2,59.0,29.91,SSE,153,5.0,18.0,57,0.00,,,0.00,696.0,meteohub,2013-09-10 21:47:00,
2013-09-10 14:52:00,75.2,58.5,29.91,WSW,250,6.0,18.0,56,0.00,,,0.00,687.0,meteohub,2013-09-10 21:52:00,
2013-09-10 14:57:00,74.8,58.1,29.91,SW,231,12.0,18.0,56,0.00,,,0.00,682.0,meteohub,2013-09-10 21:57:00,
2013-09-10 15:02:00,74.3,58.1,29.91,SW,227,12.0,16.0,57,0.00,,,0.00,671.0,meteohub,2013-09-10 22:02:00,
2013-09-10 15:07:00,74.3,58.1,29.92,WNW,288,5.0,16.0,57,0.00,,,0.00,668.0,meteohub,2013-09-10 22:07:00,
2013-09-10 15:12:00,74.8,58.6,29.92,SW,221,7.0,16.0,57,0.00,,,0.00,661.0,meteohub,2013-09-10 22:12:00,
2013-09-10 15:17:00,74.5,58.3,29.92,WSW,238,3.0,16.0,57,0.00,,,0.00,654.0,meteohub,2013-09-10 22:17:00,
2013-09-10 15:22:00,74.8,59.5,29.92,SSW,198,7.0,16.0,59,0.00,,,0.00,643.0,meteohub,2013-09-10 22:22:00,
2013-09-10 15:27:00,75.7,59.4,29.92,SW,235,5.0,16.0,57,0.00,,,0.00,635.0,meteohub,2013-09-10 22:27:00,
2013-09-10 15:32:00,75.7,59.0,29.92,SW,232,10.0,14.0,56,0.00,,,0.00,624.0,meteohub,2013-09-10 22:32:00,
2013-09-10 15:38:00,75.4,59.0,29.92,SW,216,14.0,14.0,57,0.00,,,0.00,612.0,meteohub,2013-09-10 22:38:00,
2013-09-10 15:43:00,74.5,58.8,29.91,SW,217,11.0,16.0,58,0.00,,,0.00,599.0,meteohub,2013-09-10 22:43:00,
2013-09-10 15:48:00,74.1,58.8,29.91,WSW,254,6.0,16.0,59,0.00,,,0.00,592.0,meteohub,2013-09-10 22:48:00,
2013-09-10 15:53:00,73.2,58.1,29.91,West,262,12.0,16.0,59,0.00,,,0.00,580.0,meteohub,2013-09-10 22:53:00,
2013-09-10 15:58:00,73.0,58.3,29.91,West,263,6.0,17.0,60,0.00,,,0.00,571.0,meteohub,2013-09-10 22:58:00,
2013-09-10 16:03:00,72.7,58.5,29.91,SSW,205,13.0,17.0,61,0.00,,,0.00,559.0,meteohub,2013-09-10 23:03:00,
2013-09-10 16:08:00,72.3,58.1,29.91,South,187,8.0,16.0,61,0.00,,,0.00,543.0,meteohub,2013-09-10 23:08:00,
2013-09-10 16:13:00,72.1,58.5,29.91,SW,227,6.0,15.0,62,0.00,,,0.00,529.0,meteohub,2013-09-10 23:13:00,
2013-09-10 16:18:00,72.3,59.0,29.91,WNW,288,8.0,15.0,63,0.00,,,0.00,517.0,meteohub,2013-09-10 23:18:00,
2013-09-10 16:23:00,72.5,58.8,29.92,SSW,205,6.0,15.0,62,0.00,,,0.00,506.0,meteohub,2013-09-10 23:23:00,
2013-09-10 16:28:00,72.1,58.5,29.92,SW,236,10.0,17.0,62,0.00,,,0.00,494.0,meteohub,2013-09-10 23:28:00,
2013-09-10 16:33:00,71.8,58.5,29.92,SW,225,6.0,17.0,63,0.00,,,0.00,480.0,meteohub,2013-09-10 23:33:00,
2013-09-10 16:38:00,72.1,58.8,29.92,WSW,257,5.0,17.0,63,0.00,,,0.00,466.0,meteohub,2013-09-10 23:38:00,
2013-09-10 16:43:00,71.8,58.5,29.92,WSW,250,8.0,16.0,63,0.00,,,0.00,452.0,meteohub,2013-09-10 23:43:00,
2013-09-10 16:48:00,72.1,59.4,29.92,WSW,246,6.0,13.0,64,0.00,,,0.00,434.0,meteohub,2013-09-10 23:48:00,
2013-09-10 16:54:00,72.1,58.8,29.92,SW,228,9.0,13.0,63,0.00,,,0.00,417.0,meteohub,2013-09-10 23:54:00,
2013-09-10 16:59:00,71.6,58.8,29.92,WSW,245,7.0,13.0,64,0.00,,,0.00,401.0,meteohub,2013-09-10 23:59:00,
2013-09-10 17:04:00,71.1,58.6,29.92,SSW,207,7.0,14.0,65,0.00,,,0.00,388.0,meteohub,2013-09-11 00:04:00,
2013-09-10 17:09:00,70.7,58.8,29.92,WSW,241,5.0,15.0,66,0.00,,,0.00,373.0,meteohub,2013-09-11 00:09:00,
2013-09-10 17:14:00,70.9,58.5,29.92,SW,217,9.0,15.0,65,0.00,,,0.00,355.0,meteohub,2013-09-11 00:14:00,
2013-09-10 17:19:00,70.3,58.5,29.92,WSW,254,6.0,15.0,66,0.00,,,0.00,341.0,meteohub,2013-09-11 00:19:00,
2013-09-10 17:24:00,69.8,58.3,29.92,SW,234,12.0,14.0,67,0.00,,,0.00,327.0,meteohub,2013-09-11 00:24:00,
2013-09-10 17:29:00,69.4,58.5,29.93,WNW,294,7.0,15.0,68,0.00,,,0.00,309.0,meteohub,2013-09-11 00:29:00,
2013-09-10 17:34:00,69.1,58.5,29.93,SW,224,8.0,16.0,69,0.00,,,0.00,292.0,meteohub,2013-09-11 00:34:00,
2013-09-10 17:39:00,69.1,58.5,29.93,WSW,257,6.0,16.0,69,0.00,,,0.00,274.0,meteohub,2013-09-11 00:39:00,
2013-09-10 17:44:00,68.9,58.3,29.93,WSW,244,8.0,15.0,69,0.00,,,0.00,262.0,meteohub,2013-09-11 00:44:00,
2013-09-10 17:49:00,68.5,58.3,29.93,SSW,200,8.0,15.0,70,0.00,,,0.00,243.0,meteohub,2013-09-11 00:49:00,
2013-09-10 17:54:00,68.4,58.6,29.93,SW,236,4.0,14.0,71,0.00,,,0.00,225.0,meteohub,2013-09-11 00:54:00,
2013-09-10 17:59:00,68.4,58.6,29.93,NW,306,6.0,13.0,71,0.00,,,0.00,209.0,meteohub,2013-09-11 00:59:00,
2013-09-10 18:04:00,68.2,58.5,29.93,WSW,242,6.0,13.0,71,0.00,,,0.00,195.0,meteohub,2013-09-11 01:04:00,
2013-09-10 18:09:00,67.6,58.3,29.93,SW,235,6.0,13.0,72,0.00,,,0.00,178.0,meteohub,2013-09-11 01:09:00,
2013-09-10 18:14:00,67.5,58.1,29.94,SW,233,6.0,16.0,72,0.00,,,0.00,158.0,meteohub,2013-09-11 01:14:00,
2013-09-10 18:19:00,66.9,57.9,29.94,SW,225,5.0,16.0,73,0.00,,,0.00,141.0,meteohub,2013-09-11 01:19:00,
2013-09-10 18:25:00,66.7,58.1,29.94,WNW,291,6.0,16.0,74,0.00,,,0.00,109.0,meteohub,2013-09-11 01:25:00,
2013-09-10 18:30:00,66.6,58.1,29.94,SW,216,6.0,13.0,74,0.00,,,0.00,104.0,meteohub,2013-09-11 01:30:00,
2013-09-10 18:35:00,66.0,57.9,29.94,SW,229,6.0,13.0,75,0.00,,,0.00,91.0,meteohub,2013-09-11 01:35:00,
2013-09-10 18:40:00,65.8,57.7,29.94,WSW,253,7.0,12.0,75,0.00,,,0.00,76.0,meteohub,2013-09-11 01:40:00,
2013-09-10 18:45:00,65.7,57.9,29.94,SSW,209,6.0,12.0,76,0.00,,,0.00,63.0,meteohub,2013-09-11 01:45:00,
2013-09-10 18:50:00,65.5,58.1,29.94,WSW,249,4.0,11.0,77,0.00,,,0.00,49.0,meteohub,2013-09-11 01:50:00,
2013-09-10 18:55:00,64.9,57.6,29.94,WSW,251,6.0,12.0,77,0.00,,,0.00,21.0,meteohub,2013-09-11 01:55:00,
2013-09-10 19:00:00,64.4,57.4,29.94,WSW,237,9.0,16.0,78,0.00,,,0.00,18.0,meteohub,2013-09-11 02:00:00,
2013-09-10 19:05:00,64.0,57.4,29.94,WSW,238,5.0,16.0,79,0.00,,,0.00,14.0,meteohub,2013-09-11 02:05:00,
2013-09-10 19:10:00,63.7,57.4,29.94,WSW,242,6.0,16.0,80,0.00,,,0.00,11.0,meteohub,2013-09-11 02:10:00,
2013-09-10 19:15:00,63.7,57.4,29.94,WSW,244,5.0,16.0,80,0.00,,,0.00,7.0,meteohub,2013-09-11 02:15:00,
2013-09-10 19:20:00,63.5,57.6,29.95,SW,229,4.0,12.0,81,0.00,,,0.00,0.0,meteohub,2013-09-11 02:20:00,
2013-09-10 19:25:00,63.3,57.4,29.95,WSW,250,6.0,10.0,81,0.00,,,0.00,0.0,meteohub,2013-09-11 02:25:00,
2013-09-10 19:30:00,63.1,57.2,29.95,SW,228,5.0,10.0,81,0.00,,,0.00,0.0,meteohub,2013-09-11 02:30:00,
2013-09-10 19:35:00,63.1,57.6,29.96,WSW,250,10.0,11.0,82,0.00,,,0.00,0.0,meteohub,2013-09-11 02:35:00,
2013-09-10 19:40:00,63.0,57.4,29.96,WSW,246,3.0,11.0,82,0.00,,,0.00,0.0,meteohub,2013-09-11 02:40:00,
2013-09-10 19:45:00,62.8,57.2,29.96,SW,232,6.0,11.0,82,0.00,,,0.00,0.0,meteohub,2013-09-11 02:45:00,
2013-09-10 19:51:00,62.8,57.6,29.96,WSW,238,4.0,11.0,83,0.00,,,0.00,0.0,meteohub,2013-09-11 02:51:00,
2013-09-10 19:56:00,62.8,57.6,29.96,WSW,240,7.0,17.0,83,0.00,,,0.00,0.0,meteohub,2013-09-11 02:56:00,
2013-09-10 20:01:00,62.6,57.4,29.96,WSW,243,3.0,17.0,83,0.00,,,0.00,0.0,meteohub,2013-09-11 03:01:00,
2013-09-10 20:06:00,62.6,57.4,29.96,SW,224,3.0,17.0,83,0.00,,,0.00,0.0,meteohub,2013-09-11 03:06:00,
2013-09-10 20:11:00,62.4,57.2,29.96,SW,227,5.0,12.0,83,0.00,,,0.00,0.0,meteohub,2013-09-11 03:11:00,
2013-09-10 20:16:00,62.4,57.2,29.96,WNW,284,4.0,12.0,83,0.00,,,0.00,0.0,meteohub,2013-09-11 03:16:00,
2013-09-10 20:21:00,62.4,57.2,29.97,SW,236,7.0,12.0,83,0.00,,,0.00,0.0,meteohub,2013-09-11 03:21:00,
2013-09-10 20:26:00,62.4,57.2,29.97,West,275,4.0,12.0,83,0.00,,,0.00,0.0,meteohub,2013-09-11 03:26:00,
2013-09-10 20:31:00,62.4,57.2,29.97,WSW,246,4.0,11.0,83,0.00,,,0.00,0.0,meteohub,2013-09-11 03:31:00,
2013-09-10 20:36:00,62.2,57.4,29.97,WSW,237,4.0,11.0,84,0.00,,,0.00,0.0,meteohub,2013-09-11 03:36:00,
2013-09-10 20:41:00,62.2,57.4,29.97,WSW,240,4.0,11.0,84,0.00,,,0.00,0.0,meteohub,2013-09-11 03:41:00,
2013-09-10 20:46:00,62.2,57.4,29.98,SSW,210,3.0,9.0,84,0.00,,,0.00,0.0,meteohub,2013-09-11 03:46:00,
2013-09-10 20:51:00,62.2,57.4,29.98,WSW,246,4.0,11.0,84,0.00,,,0.00,0.0,meteohub,2013-09-11 03:51:00,
2013-09-10 20:56:00,62.2,57.4,29.98,West,275,2.0,11.0,84,0.00,,,0.00,0.0,meteohub,2013-09-11 03:56:00,
2013-09-10 21:01:00,62.2,57.4,29.98,WSW,238,4.0,11.0,84,0.00,,,0.00,0.0,meteohub,2013-09-11 04:01:00,
2013-09-10 21:02:00,62.2,57.4,29.98,SW,223,2.0,11.0,84,0.00,,,0.00,0.0,meteohub,2013-09-11 04:02:00,
2013-09-10 21:05:00,62.2,57.4,29.98,SSW,207,3.0,9.0,84,0.00,,,0.00,0.0,meteohub,2013-09-11 04:05:00,
2013-09-10 21:11:00,62.2,57.4,29.99,SW,219,4.0,9.0,84,0.00,,,0.00,0.0,meteohub,2013-09-11 04:11:00,
2013-09-10 21:16:00,62.2,57.4,29.99,SW,225,8.0,9.0,84,0.00,,,0.00,0.0,meteohub,2013-09-11 04:16:00,
2013-09-10 21:21:00,62.2,57.4,29.99,SW,232,6.0,9.0,84,0.00,,,0.00,0.0,meteohub,2013-09-11 04:21:00,
2013-09-10 21:26:00,62.1,57.2,29.99,WSW,239,0.0,10.0,84,0.00,,,0.00,0.0,meteohub,2013-09-11 04:26:00,
2013-09-10 21:31:00,62.1,57.2,29.99,West,265,5.0,10.0,84,0.00,,,0.00,0.0,meteohub,2013-09-11 04:31:00,
2013-09-10 21:36:00,62.1,57.2,29.99,WSW,250,5.0,7.0,84,0.00,,,0.00,0.0,meteohub,2013-09-11 04:36:00,
2013-09-10 21:41:00,62.1,57.2,29.99,SW,230,3.0,7.0,84,0.00,,,0.00,0.0,meteohub,2013-09-11 04:41:00,
2013-09-10 21:46:00,62.1,57.2,30.00,SW,233,6.0,7.0,84,0.00,,,0.00,0.0,meteohub,2013-09-11 04:46:00,
2013-09-10 21:51:00,62.1,57.2,30.00,WSW,237,4.0,8.0,84,0.00,,,0.00,0.0,meteohub,2013-09-11 04:51:00,
2013-09-10 21:56:00,62.1,57.2,30.00,SW,227,3.0,8.0,84,0.00,,,0.00,0.0,meteohub,2013-09-11 04:56:00,
2013-09-10 22:01:00,62.1,57.2,30.00,WSW,240,3.0,8.0,84,0.00,,,0.00,0.0,meteohub,2013-09-11 05:01:00,
2013-09-10 22:06:00,62.1,57.2,30.00,SW,226,3.0,8.0,84,0.00,,,0.00,0.0,meteohub,2013-09-11 05:06:00,
2013-09-10 22:11:00,61.9,57.0,30.00,WSW,243,4.0,8.0,84,0.00,,,0.00,0.0,meteohub,2013-09-11 05:11:00,
2013-09-10 22:17:00,61.9,57.4,30.00,SW,223,5.0,10.0,85,0.00,,,0.00,0.0,meteohub,2013-09-11 05:17:00,
2013-09-10 22:22:00,61.9,57.4,30.00,SW,226,3.0,10.0,85,0.00,,,0.00,0.0,meteohub,2013-09-11 05:22:00,
2013-09-10 22:27:00,61.9,57.4,30.01,WSW,246,10.0,10.0,85,0.00,,,0.00,0.0,meteohub,2013-09-11 05:27:00,
2013-09-10 22:32:00,61.7,57.2,30.01,SW,218,2.0,10.0,85,0.00,,,0.00,0.0,meteohub,2013-09-11 05:32:00,
2013-09-10 22:37:00,61.5,57.0,30.01,SW,219,4.0,10.0,85,0.00,,,0.00,0.0,meteohub,2013-09-11 05:37:00,
2013-09-10 22:42:00,61.5,57.0,30.01,WSW,250,4.0,10.0,85,0.00,,,0.00,0.0,meteohub,2013-09-11 05:42:00,
2013-09-10 22:47:00,61.5,57.0,30.01,SW,223,4.0,7.0,85,0.00,,,0.00,0.0,meteohub,2013-09-11 05:47:00,
2013-09-10 22:52:00,61.3,56.8,30.01,SW,230,4.0,10.0,85,0.00,,,0.00,0.0,meteohub,2013-09-11 05:52:00,
2013-09-10 22:57:00,61.3,56.8,30.01,WSW,248,2.0,10.0,85,0.00,,,0.00,0.0,meteohub,2013-09-11 05:57:00,
2013-09-10 23:02:00,61.3,56.8,30.01,SW,232,1.0,10.0,85,0.00,,,0.00,0.0,meteohub,2013-09-11 06:02:00,
2013-09-10 23:07:00,61.2,56.7,30.01,WSW,244,4.0,7.0,85,0.00,,,0.00,0.0,meteohub,2013-09-11 06:07:00,
2013-09-10 23:13:00,61.2,57.0,30.01,SW,229,5.0,6.0,86,0.00,,,0.00,0.0,meteohub,2013-09-11 06:13:00,
2013-09-10 23:18:00,61.0,56.8,30.01,SW,227,1.0,7.0,86,0.00,,,0.00,0.0,meteohub,2013-09-11 06:18:00,
2013-09-10 23:23:00,61.0,56.8,30.01,WSW,246,4.0,7.0,86,0.00,,,0.00,0.0,meteohub,2013-09-11 06:23:00,
2013-09-10 23:28:00,61.0,56.8,30.01,WSW,250,3.0,9.0,86,0.00,,,0.00,0.0,meteohub,2013-09-11 06:28:00,
2013-09-10 23:33:00,61.0,56.8,30.01,SW,220,5.0,9.0,86,0.00,,,0.00,0.0,meteohub,2013-09-11 06:33:00,
2013-09-10 23:38:00,61.0,56.8,30.01,WSW,254,3.0,9.0,86,0.00,,,0.00,0.0,meteohub,2013-09-11 06:38:00,
2013-09-10 23:43:00,61.0,56.8,30.01,WSW,240,7.0,9.0,86,0.00,,,0.00,0.0,meteohub,2013-09-11 06:43:00,
2013-09-10 23:48:00,61.0,56.8,30.01,WSW,238,4.0,9.0,86,0.00,,,0.00,0.0,meteohub,2013-09-11 06:48:00,
2013-09-10 23:53:00,60.8,56.7,30.01,WSW,243,2.0,8.0,86,0.00,,,0.00,0.0,meteohub,2013-09-11 06:53:00,
2013-09-10 23:58:00,60.8,56.7,30.01,WSW,243,3.0,9.0,86,0.00,,,0.00,0.0,meteohub,2013-09-11 06:58:00,